GFSFLT1_850_dewp_000.txt.gz
Dewpoint
5 4 4 3 6 8 8 8 9 7 7 6 6 6 5 3 2 1 -1 -1 -1 -1 -1 -0 -0 -1 -1 -1 -1 -2 -2 -2
4 4 4 5 9 9 8 7 6 6 5 5 6 4 2 -1 -2 -2 -1 -1 -1 -1 0 0 -0 -1 -2 -2 -2 -2 -3 -6
5 6 5 6 7 7 6 5 6 5 4 5 3 1 -2 -2 -2 -1 -1 -1 -1 -4 -1 -1 -2 -2 -3 -4 -4 -4 -5 -7
4 4 4 3 4 5 4 3 3 3 2 -1 -2 -2 -2 -1 -1 -3 -4 -5 -3 -2 -1 -2 -3 -5 -6 -6 -6 -7 -9 -10
2 2 2 2 1 -0 -1 -1 -1 -1 -2 -3 -3 -2 -2 -2 -3 -4 -4 -3 -2 -1 -2 -4 -8 -10 -10 -10 -11 -10 -10 -7
1 1 1 1 1 -0 -1 -1 -2 -1 -1 -2 -2 -2 -2 -2 -2 -3 -2 -2 -2 -4 -7 -10 -13 -14 -12 -8 -6 -4 -3 -3
0 1 2 1 1 1 1 1 1 1 1 -0 -0 -0 -1 -2 -2 -2 -3 -4 -3 -5 -7 -11 -7 -6 -6 -5 -5 -4 -3 -2
1 2 2 1 1 1 1 2 2 1 1 1 -0 -1 -1 -2 -3 -2 -1 -2 -4 -5 -6 -5 -4 -4 -8 -4 -4 -4 -3 -4
2 2 2 2 2 2 2 2 2 2 2 1 -1 -2 -3 -2 0 1 0 -1 -4 -4 -3 -3 -5 -10 -5 -6 -9 -10 -10 -11
2 3 2 2 1 1 2 2 2 1 0 -1 -1 -2 -2 -1 -3 -4 -3 -4 -3 -2 -3 -8 -13 -12 -9 -10 -12 -13 -14 -13
1 1 1 1 0 0 -0 -1 -1 -1 -2 -3 -4 -4 -2 -3 -3 -3 -4 -3 -2 -2 -4 -13 -13 -11 -11 -12 -13 -14 -12 -12
1 1 0 0 -1 -2 -3 -3 -4 -7 -7 -8 -9 -7 -3 -2 -2 -3 -2 -2 -2 -4 -10 -10 -13 -13 -12 -13 -13 -13 -12 -12
1 0 -1 -1 -3 -4 -5 -5 -7 -9 -11 -12 -6 -2 -1 -2 -2 -2 -2 -2 -6 -7 -7 -10 -13 -13 -14 -14 -13 -13 -12 -11
0 -2 -4 -4 -5 -5 -6 -7 -8 -9 -11 -11 -12 -13 -13 -9 -1 -2 -4 -6 -7 -4 -11 -13 -14 -15 -15 -13 -12 -12 -11 -10
-2 -7 -4 -5 -7 -7 -7 -8 -9 -10 -11 -13 -14 -16 -11 -6 -2 -5 -4 -3 -6 -11 -14 -14 -15 -14 -13 -12 -11 -10 -10 -10
-6 -4 -6 -8 -8 -8 -9 -10 -11 -12 -13 -14 -15 -16 -10 -8 -6 -6 -4 -9 -11 -14 -14 -14 -14 -13 -12 -11 -10 -10 -9 -11
-6 -5 -9 -9 -10 -10 -11 -12 -13 -13 -13 -13 -13 -13 -11 -8 -6 -3 -4 -10 -14 -12 -10 -14 -13 -11 -11 -10 -9 -11 -13 -12
-6 -9 -10 -11 -11 -12 -13 -13 -13 -12 -11 -11 -11 -10 -10 -8 -6 -4 -6 -9 -7 -9 -14 -13 -11 -11 -9 -10 -12 -11 -10 -10
-9 -9 -10 -11 -12 -12 -12 -12 -11 -11 -10 -10 -10 -9 -9 -7 -4 -4 -5 -6 -7 -12 -13 -12 -11 -10 -11 -12 -11 -10 -10 -11

GFSFLT1_850_dewp_006.txt.gz
Dewpoint
6 6 6 6 4 4 8 8 9 9 9 9 7 4 4 5 5 2 -0 -1 -1 -1 -2 -5 -4 -4 -4 -3 -2 -3 -4 -5
6 6 6 6 6 8 7 7 8 8 8 6 5 5 6 5 0 -0 -1 -3 -4 -5 -4 -3 -3 -3 -3 -3 -5 -6 -8 -10
8 8 9 9 10 8 6 5 5 5 6 5 5 2 -2 -1 -1 -1 -3 -3 -3 -3 -3 -3 -3 -5 -7 -7 -9 -13 -16 -20
6 7 7 5 4 2 1 -0 -1 -0 -1 -1 -1 -1 -1 -1 -1 -2 -2 -2 -3 -2 -3 -4 -4 -3 -4 -5 -11 -13 -12 -13
3 3 1 -1 -1 -1 -1 -1 -0 0 0 0 1 1 1 0 -1 -1 -2 -2 -2 -3 -4 -4 -4 -4 -6 -9 -9 -9 -8 -13
1 -0 -0 -1 0 1 1 1 1 1 1 1 1 1 1 0 -1 -2 -2 -2 -4 -7 -9 -4 -5 -5 -6 -6 -6 -7 -11 -10
1 1 1 1 1 1 1 1 1 1 1 1 1 0 -0 -2 -2 -3 -2 -4 -4 -5 -5 -4 -4 -4 -6 -9 -11 -13 -13 -13
2 2 2 1 1 1 1 1 1 1 1 1 -0 -1 -4 -3 -2 -2 -1 -1 -3 -4 -4 -2 -2 -6 -7 -7 -8 -14 -14 -15
3 2 2 2 2 1 1 1 0 -1 -1 -1 -2 -4 -5 -5 -3 -3 -4 -5 -4 -3 -3 -2 -3 -4 -2 -8 -11 -15 -13 -14
2 2 2 1 1 0 -1 -2 -4 -3 -4 -5 -8 -11 -12 -12 -13 -15 -16 -18 -16 -4 -3 -2 -2 -3 -6 -6 -12 -13 -12 -13
1 0 0 0 -0 -2 -3 -5 -6 -7 -8 -8 -10 -13 -15 -16 -19 -21 -27 -33 -7 -2 -3 -3 -3 -4 -7 -12 -13 -15 -13 -12
-0 -0 -0 -1 -2 -2 -3 -7 -7 -7 -9 -11 -14 -15 -18 -20 -23 -26 -27 -15 -3 -3 -3 -3 -6 -7 -13 -13 -16 -14 -13 -12
-0 -1 -1 -3 -5 -7 -7 -7 -7 -9 -11 -13 -13 -13 -15 -18 -20 -21 -21 -12 -4 -4 -6 -4 -6 -12 -14 -15 -15 -13 -13 -12
-1 -2 -5 -6 -7 -7 -7 -7 -9 -10 -12 -12 -12 -12 -13 -14 -16 -18 -17 -9 -6 -5 -4 -5 -14 -15 -14 -15 -13 -13 -12 -12
-2 -5 -6 -7 -6 -3 -7 -9 -10 -11 -12 -11 -11 -11 -11 -13 -15 -14 -13 -6 -4 -5 -6 -12 -16 -14 -14 -14 -13 -12 -11 -11
-5 -5 -6 -4 -4 -8 -10 -10 -11 -12 -11 -11 -10 -10 -10 -14 -11 -12 -12 -7 -6 -5 -9 -13 -14 -11 -14 -12 -12 -11 -11 -12
-5 -5 -6 -8 -9 -10 -10 -11 -12 -11 -11 -10 -9 -9 -12 -12 -10 -10 -8 -5 -5 -5 -11 -11 -9 -11 -13 -11 -11 -11 -12 -14
-6 -7 -9 -9 -10 -11 -12 -12 -11 -11 -10 -10 -9 -11 -10 -11 -9 -8 -6 -5 -6 -7 -7 -8 -7 -12 -11 -11 -12 -13 -16 -20
-8 -8 -8 -9 -11 -12 -12 -12 -11 -10 -10 -9 -11 -10 -8 -10 -10 -8 -6 -6 -6 -7 -7 -11 -11 -9 -10 -12 -12 -17 -20 -18

GFSFLT1_850_dewp_009.txt.gz
Dewpoint
5 5 5 6 5 4 5 8 7 7 8 8 8 7 4 6 6 5 1 -0 -2 -3 -4 -4 -3 -3 -3 -3 -4 -6 -7 -8
6 7 7 6 7 7 9 9 8 8 7 7 6 4 5 4 -1 -1 -1 -2 -3 -2 -3 -2 -3 -3 -3 -4 -4 -4 -6 -8
7 8 9 9 8 5 5 5 4 4 5 5 5 3 -2 -2 -1 -1 -2 -2 -2 -2 -2 -3 -4 -4 -4 -4 -5 -8 -9 -10
8 6 3 3 2 0 -1 -1 2 1 -1 -1 -0 -0 -0 -0 -0 -1 -1 -1 -2 -2 -3 -5 -8 -8 -6 -6 -7 -7 -4 -6
4 2 -0 -1 -1 -1 -1 -0 0 0 0 1 1 1 1 1 -0 -1 -2 -2 -2 -4 -5 -7 -10 -5 -5 -5 -5 -6 -8 -6
-0 -1 -1 -1 -0 0 1 1 1 1 1 1 1 1 0 -0 -2 -3 -3 -2 -2 -3 -5 -10 -11 -5 -4 -4 -6 -10 -12 -13
-0 -0 -0 0 1 1 1 1 1 1 1 1 1 -0 -1 -2 -3 -3 -3 -4 -6 -10 -14 -13 -6 -4 -3 -5 -6 -3 -5 -9
1 1 1 1 1 1 1 1 1 1 0 -1 -3 -3 -3 -6 -8 -9 -10 -12 -15 -18 -13 -7 -3 -3 -4 -4 -4 -7 -13 -15
2 2 1 1 1 1 1 1 -1 -3 -5 -8 -9 -8 -10 -12 -15 -17 -19 -22 -26 -32 -23 -5 -2 -2 -4 -2 -7 -11 -13 -12
2 2 1 1 1 0 -2 -2 -5 -7 -8 -9 -10 -12 -15 -17 -20 -24 -28 -30 -31 -26 -12 -2 -2 -3 -3 -6 -12 -13 -15 -14
2 1 0 -0 -1 -2 -2 -4 -6 -7 -8 -11 -12 -15 -16 -19 -19 -22 -26 -27 -26 -12 -3 -1 -2 -5 -8 -11 -13 -16 -15 -13
1 -1 -1 -2 -3 -3 -3 -6 -5 -8 -10 -11 -12 -13 -14 -14 -15 -21 -23 -21 -19 -7 -3 -2 -4 -5 -6 -13 -15 -15 -14 -13
-1 -1 -1 -3 -4 -4 -4 -3 -7 -10 -10 -11 -11 -11 -11 -11 -14 -18 -17 -16 -14 -5 -4 -5 -6 -4 -7 -14 -14 -14 -13 -13
-1 -2 -3 -5 -7 -4 -3 -5 -9 -10 -10 -11 -11 -10 -10 -10 -13 -15 -13 -13 -12 -7 -6 -5 -5 -10 -15 -14 -14 -13 -12 -11
-1 -2 -4 -6 -6 -3 -4 -9 -10 -11 -11 -11 -11 -10 -9 -10 -13 -14 -13 -12 -10 -7 -6 -5 -7 -11 -14 -12 -13 -12 -11 -11
-1 -2 -5 -6 -2 -5 -9 -10 -11 -11 -11 -11 -11 -10 -9 -10 -13 -14 -11 -10 -7 -6 -6 -7 -12 -11 -10 -10 -12 -11 -11 -12
-1 -4 -5 -4 -7 -9 -10 -11 -11 -12 -11 -11 -10 -9 -9 -12 -11 -12 -11 -8 -6 -6 -6 -9 -8 -8 -8 -10 -10 -10 -12 -12
-1 -4 -5 -8 -9 -9 -11 -12 -12 -12 -11 -10 -10 -9 -11 -10 -9 -10 -11 -8 -6 -6 -7 -6 -6 -7 -10 -9 -11 -11 -14 -19
-2 -5 -8 -7 -8 -10 -12 -12 -12 -11 -10 -11 -10 -13 -11 -8 -8 -9 -10 -8 -8 -7 -7 -8 -11 -10 -9 -11 -11 -14 -18 -19

GFSFLT1_850_dewp_015.txt.gz
Dewpoint
8 8 7 7 7 11 12 13 12 10 7 8 8 8 7 6 6 5 3 3 0 2 2 2 1 1 1 1 2 1 -1 -3
8 9 10 9 10 11 11 10 12 11 11 10 8 6 6 6 4 2 1 1 1 -0 1 1 1 1 1 1 0 -1 -4 -6
9 10 11 11 11 11 11 11 11 10 8 7 6 6 6 3 3 1 1 1 1 1 2 2 1 1 -0 -1 -2 -2 -4 -5
9 10 11 11 11 12 11 10 9 7 6 6 7 6 3 3 2 1 2 2 2 1 1 1 1 -0 -3 -3 -3 -1 -3 -4
9 10 10 10 10 9 8 7 6 6 5 3 3 3 3 3 2 2 2 2 2 0 -1 -1 -1 -2 -3 -3 -5 -3 -3 -4
7 7 6 6 6 6 5 4 3 3 4 4 3 3 2 1 1 1 -0 -3 -6 -7 -9 -8 -6 -3 -2 -2 -2 -2 -3 -4
4 3 3 4 4 4 4 3 3 4 4 4 3 2 0 -1 -4 -7 -9 -10 -11 -10 -9 -7 -6 -4 -2 -2 -2 -2 -1 -3
1 2 2 3 4 4 4 3 3 3 2 0 -1 -4 -6 -8 -9 -10 -9 -10 -10 -10 -8 -6 -5 -5 -3 -3 -2 -2 -2 -3
1 1 2 3 4 3 2 2 2 1 -2 -4 -5 -4 -3 -8 -8 -8 -9 -9 -9 -8 -7 -4 -3 -3 -2 -3 -2 -1 -2 -4
1 1 2 3 3 3 3 1 -1 -3 -4 -2 -2 -8 -13 -7 -7 -7 -9 -9 -9 -9 -6 -5 -4 -2 -4 -3 -3 -3 -5 -6
1 2 3 3 3 3 1 -1 -3 -3 -1 -3 -8 -8 -6 -6 -6 -7 -8 -8 -7 -7 -7 -7 -5 -4 -2 -3 -3 -6 -5 -6
2 2 2 2 3 1 -1 -3 -2 -3 -4 -5 -7 -6 -6 -6 -6 -7 -7 -7 -7 -7 -6 -6 -5 -5 -4 -4 -5 -5 -4 -6
2 3 2 2 2 -0 -2 -2 -3 -4 -2 -5 -6 -6 -6 -7 -6 -6 -6 -7 -7 -7 -6 -6 -6 -6 -6 -5 -5 -6 -6 -8
3 3 2 2 0 -1 -2 -2 -3 -4 -5 -8 -7 -7 -6 -6 -6 -6 -6 -7 -7 -6 -6 -6 -7 -6 -5 -4 -5 -7 -8 -7
3 3 2 2 0 -2 -3 -3 -2 -3 -9 -9 -9 -8 -6 -7 -6 -6 -6 -7 -6 -6 -6 -6 -6 -7 -8 -8 -9 -8 -8 -7
3 2 1 1 -1 -2 -3 -2 -1 -6 -8 -9 -8 -7 -6 -7 -7 -6 -7 -6 -6 -6 -7 -5 -4 -6 -8 -8 -7 -7 -7 -7
2 1 0 -0 -2 -3 -3 -1 -4 -6 -7 -7 -7 -7 -7 -8 -7 -6 -7 -7 -7 -7 -7 -6 -4 -5 -6 -9 -10 -10 -9 -10
1 1 0 -1 -2 -3 -2 -4 -5 -6 -7 -7 -8 -7 -8 -8 -8 -9 -8 -7 -7 -7 -7 -7 -5 -5 -6 -10 -10 -10 -9 -10
1 1 0 0 -1 -4 -4 -5 -6 -7 -8 -8 -8 -9 -11 -10 -10 -9 -9 -7 -7 -7 -8 -7 -6 -5 -8 -9 -9 -10 -9 -10

GFSFLT1_850_dewp_021.txt.gz
Dewpoint
4 4 7 8 9 9 9 8 8 8 9 7 7 8 8 7 6 4 1 -2 -1 -1 -0 1 1 1 1 0 -0 -4 -8 -5
5 5 6 9 10 10 10 9 9 10 9 7 8 9 8 6 4 3 -1 -0 0 0 0 0 0 -0 -1 -2 -8 -9 -8 -8
6 6 7 9 10 10 10 10 8 10 8 8 9 7 6 5 3 2 0 0 0 0 -0 -1 -3 -6 -10 -10 -10 -10 -7 -4
7 7 8 11 11 11 10 11 10 9 9 8 7 7 6 5 3 1 2 2 1 -2 -2 -3 -5 -7 -9 -10 -11 -7 -2 -2
8 9 9 11 12 9 10 10 8 9 10 6 6 7 5 4 3 2 2 2 -1 -2 -2 -4 -11 -14 -16 -19 -11 -6 -3 -2
9 10 10 10 11 10 9 9 10 9 7 6 6 6 4 3 3 3 2 -2 -1 -3 -5 -20 -21 -26 -26 -14 -5 -3 -2 -1
9 10 10 10 9 9 9 10 7 6 6 6 4 4 3 3 2 1 -1 1 -4 -14 -19 -22 -24 -25 -17 -8 -4 -2 -2 -2
9 10 10 10 10 9 8 7 7 6 4 4 4 4 3 2 -0 -1 1 -6 -17 -22 -25 -26 -23 -18 -9 -4 -4 -4 -2 -5
9 9 9 9 9 8 6 6 5 4 4 4 4 3 2 -2 -0 -0 -10 -21 -21 -24 -24 -20 -24 -12 -5 -4 -4 -7 -4 -5
8 8 7 7 7 6 5 4 3 4 4 4 3 1 -2 1 -2 -12 -18 -20 -20 -18 -19 -22 -19 -15 -8 -4 -4 -4 -3 -4
6 6 5 5 5 5 4 4 4 3 3 1 -2 -0 -1 -3 -10 -15 -14 -17 -15 -15 -17 -15 -13 -12 -9 -6 -5 -5 -5 -4
4 3 3 3 3 4 4 3 3 3 2 -1 -1 -0 -3 -8 -10 -10 -10 -10 -10 -11 -12 -10 -10 -6 -6 -6 -6 -6 -7 -5
2 2 2 3 4 4 4 3 3 2 -0 -2 -1 -2 -6 -7 -7 -7 -7 -6 -6 -8 -8 -10 -7 -5 -6 -8 -8 -8 -6 -5
2 1 2 3 4 4 3 3 2 -0 -2 -2 -1 -2 -5 -5 -6 -6 -6 -6 -6 -6 -6 -9 -8 -6 -5 -6 -8 -8 -7 -7
2 1 2 3 3 3 3 3 2 -1 -2 -2 -2 -4 -6 -5 -6 -6 -6 -7 -6 -6 -6 -8 -7 -7 -6 -6 -7 -7 -8 -9
2 2 2 3 3 3 3 3 2 -1 -1 -3 -3 -7 -5 -6 -6 -6 -7 -7 -7 -7 -8 -7 -7 -7 -6 -6 -5 -6 -7 -9
-2 3 3 3 3 3 3 3 1 -1 -2 -3 -5 -7 -7 -5 -6 -6 -9 -11 -10 -9 -8 -7 -7 -7 -7 -7 -5 -5 -7 -13
-2 2 3 3 3 3 3 2 0 -1 -2 -2 -6 -7 -6 -6 -5 -6 -10 -10 -9 -9 -8 -7 -7 -7 -7 -7 -7 -6 -8 -10
-1 -1 1 2 3 2 2 1 -1 -2 -1 -4 -6 -6 -5 -6 -4 -8 -11 -12 -10 -9 -8 -7 -7 -7 -7 -6 -6 -7 -7 -10

GFSFLT1_850_dewp_024.txt.gz
Dewpoint
8 8 7 7 -5 1 6 8 8 8 8 8 7 6 5 7 6 5 2 -2 -4 -3 -2 -1 -1 -1 -1 -1 -3 -7 -12 -13
6 7 8 8 5 1 5 4 3 7 9 9 8 5 6 7 6 4 1 -3 -3 -2 -1 -1 -1 -3 -4 -9 -12 -16 -21 -17
7 7 8 8 8 8 8 7 6 7 8 8 7 6 7 7 5 3 1 -2 -1 -0 -1 -2 -2 -6 -12 -13 -15 -17 -17 -7
5 6 7 8 9 9 9 9 9 8 9 9 8 8 8 6 5 4 -0 -0 -0 -0 -1 0 -0 -6 -11 -14 -16 -15 -9 -5
6 7 7 8 9 10 8 10 10 10 10 8 8 7 5 5 4 3 1 1 1 1 -0 0 -2 -10 -19 -26 -25 -16 -7 -3
6 7 7 9 9 9 10 11 11 11 9 9 6 5 5 5 5 3 2 2 1 -1 -1 -5 -13 -20 -27 -26 -20 -12 -4 -2
7 8 8 9 9 9 10 11 11 10 10 8 6 6 6 5 4 3 3 1 -3 -3 -7 -16 -22 -26 -28 -21 -10 -6 -4 -4
8 9 9 10 10 10 9 8 10 10 10 8 7 7 6 5 3 3 2 -2 -2 -12 -16 -19 -22 -23 -22 -15 -9 -5 -4 -5
8 9 10 10 11 10 9 8 9 9 7 7 6 5 4 3 2 0 -1 -5 -14 -18 -16 -21 -23 -21 -17 -17 -13 -5 -5 -4
8 9 10 10 10 9 9 8 8 7 5 5 4 3 3 2 -1 -1 -5 -14 -16 -18 -19 -21 -23 -23 -19 -11 -8 -6 -5 -6
9 10 10 10 9 9 8 8 7 6 5 4 4 3 1 -1 -1 -5 -10 -12 -15 -16 -15 -16 -17 -19 -15 -9 -9 -7 -6 -6
9 9 9 8 8 8 7 7 7 6 4 3 3 2 -1 -1 0 -7 -11 -9 -8 -12 -15 -12 -10 -16 -13 -6 -6 -7 -8 -7
7 6 7 7 6 5 4 4 3 2 2 3 3 1 -1 1 -3 -8 -6 -8 -8 -12 -10 -8 -7 -11 -9 -6 -5 -6 -8 -8
6 6 6 5 4 3 3 3 3 3 3 3 2 -1 -1 -1 -5 -5 -6 -6 -6 -8 -7 -6 -6 -10 -9 -7 -6 -6 -7 -8
5 5 5 4 3 2 3 4 4 3 3 2 0 -2 -2 -3 -5 -5 -6 -6 -7 -6 -6 -8 -9 -8 -7 -7 -6 -6 -6 -7
4 3 3 3 3 3 4 4 4 3 3 0 -2 -2 -2 -6 -5 -5 -6 -6 -6 -9 -11 -11 -8 -7 -6 -7 -7 -6 -5 -5
1 3 2 2 2 3 4 4 4 4 2 -1 -2 -2 -5 -5 -5 -6 -7 -7 -5 -10 -12 -9 -9 -7 -7 -7 -7 -6 -6 -6
0 1 2 2 2 3 4 4 4 3 0 -2 -2 -4 -5 -5 -6 -6 -4 -2 -4 -11 -9 -9 -8 -7 -7 -7 -7 -6 -6 -6
-1 -1 -0 2 2 3 3 3 4 2 -1 -2 -3 -5 -6 -6 -6 -4 -2 -5 -7 -9 -10 -9 -8 -7 -7 -7 -7 -6 -7 -7

GFSFLT1_850_dewp_030.txt.gz
Dewpoint
6 6 7 6 9 9 9 7 5 6 8 9 10 10 9 8 5 6 5 5 6 6 4 -0 -1 -1 -1 -3 -6 -10 -17 -21
6 4 5 8 9 8 8 8 6 7 8 9 10 9 8 6 6 6 5 5 4 3 0 -0 -0 -1 -2 -2 -7 -16 -23 -25
8 6 6 7 5 7 7 8 8 8 8 8 9 9 8 7 6 6 4 2 1 0 0 0 -0 -1 -1 -3 -9 -20 -26 -23
8 8 7 8 7 4 7 8 8 9 9 9 9 9 8 7 6 6 4 2 0 0 0 0 -1 -1 -4 -10 -15 -18 -26 -24
7 7 8 7 8 7 5 4 4 7 8 8 9 9 9 8 7 6 4 3 2 1 1 1 -1 -3 -9 -11 -5 -14 -27 -23
7 7 7 7 7 7 5 6 6 7 7 8 9 9 9 8 7 6 5 4 3 1 1 -0 -3 -1 1 3 2 -18 -26 -18
5 6 7 7 7 8 7 7 8 7 7 8 9 9 9 9 8 6 5 4 3 1 0 -2 -3 1 3 3 -18 -27 -25 -18
5 5 6 6 7 7 9 7 7 7 7 7 8 9 10 9 9 7 6 4 4 2 1 -1 -1 2 3 -12 -24 -27 -23 -16
2 4 5 5 6 6 8 7 8 8 8 8 9 10 10 9 9 7 5 5 4 3 1 -2 2 3 -6 -13 -21 -23 -17 -10
2 3 4 4 5 5 6 7 8 8 8 9 9 10 9 9 9 8 6 5 3 2 -3 0 3 -3 -11 -18 -21 -18 -11 -8
3 4 4 5 5 6 7 8 9 8 8 8 10 10 9 8 7 8 7 5 3 -1 -1 -0 -6 -9 -15 -17 -11 -11 -8 -7
2 3 4 5 5 7 8 8 8 7 8 8 9 8 7 7 7 7 6 4 0 -4 -4 -6 -12 -12 -12 -4 -10 -12 -9 -7
4 4 4 5 5 7 8 8 8 7 8 8 7 5 6 7 7 5 4 1 -4 -5 -7 -10 -9 -11 -5 -8 -12 -10 -9 -8
4 5 5 5 7 8 8 7 7 6 6 7 6 7 6 5 5 3 1 -2 -4 -7 -6 -8 -9 -6 -3 -11 -9 -8 -8 -7
2 4 4 7 9 9 7 7 7 6 7 7 7 6 6 5 3 2 -1 -4 -6 -6 -6 -7 -8 -4 -2 -9 -8 -8 -7 -7
2 4 6 8 9 8 8 7 8 8 8 7 6 5 4 3 2 -0 -4 -5 -6 -6 -6 -7 -5 -2 -2 -9 -8 -7 -7 -7
4 5 5 6 7 7 7 7 8 8 7 6 5 4 3 2 0 -3 -4 -5 -5 -5 -5 -5 -2 -1 -3 -7 -9 -8 -7 -7
1 1 2 2 2 3 3 4 5 6 6 6 5 3 2 1 -1 -4 -4 -5 -5 -4 -3 -2 -2 -1 -5 -9 -9 -8 -8 -7
-2 -2 -2 -2 -3 -2 -0 2 4 4 5 5 3 2 1 -1 -3 -4 -5 -4 -3 -2 -2 -2 -1 -2 -8 -10 -11 -10 -8 -8